Retour au catalogue

STARLINK-33782

ActifCommunicationsVLEO
NORAD 64332·PAYLOAD·🇺🇸 United States

Lancé Jun 10, 2025 depuis Cape Canaveral Space Force Station

Loading…

Prochains Passages (prochaines 24 heures)

TLE

FraisSource: CelesTrak SupGP

Époque: Sep 14, 2026, 20:57 UTC

1 64332C 25124R   26257.87340278 -.00075176  00000+0 -27229-2 0  2571
2 64332  43.0002 133.1842 0001357 270.6877 135.1072 15.27615263    12

Suivez STARLINK-33782 en temps réel avec AllMySat

Download on the App Store